| time (UTC) | temp C | wind direction | speed KPH | gust KPH | rain 1hr cm | rain 24hr cm | rain mn cm | humidity % | barometer mb |
| 20260506014518 | 11 | 19 | 3.2 | 8.0 | 0.00 | 0.00 | 0.00 | 76 | 1009.6 |
| 20260506013518 | 11 | 26 | 6.4 | 12.9 | 0.00 | 0.00 | 0.00 | 76 | 1009.6 |
| 20260506012538 | 11 | 17 | 6.4 | 12.9 | 0.00 | 0.00 | 0.00 | 76 | 1009.2 |
| 20260506011517 | 11 | 28 | 3.2 | 8.0 | 0.00 | 0.00 | 0.00 | 76 | 1009.2 |
| 20260506010519 | 11 | 17 | 6.4 | 16.1 | 0.00 | 0.00 | 0.00 | 75 | 1009.2 |
| 20260506005536 | 11 | 40 | 6.4 | 16.1 | 0.00 | 0.00 | 0.00 | 75 | 1008.9 |
| 20260506004516 | 11 | 30 | 8.0 | 25.7 | 0.00 | 0.00 | 0.00 | 75 | 1008.9 |
| 20260506003536 | 11 | 27 | 8.0 | 16.1 | 0.00 | 0.00 | 0.00 | 75 | 1008.8 |
| 20260506002516 | 11 | 26 | 8.0 | 12.9 | 0.00 | 0.00 | 0.00 | 74 | 1009.1 |
| 20260506001516 | 11 | 14 | 6.4 | 11.3 | 0.00 | 0.00 | 0.00 | 73 | 1008.9 |
| 20260506000516 | 11 | 25 | 9.7 | 19.3 | 0.00 | 0.00 | 0.00 | 72 | 1008.4 |
| 20260505235517 | 11 | 13 | 8.0 | 12.9 | 0.00 | 0.00 | 0.00 | 71 | 1008.5 |
| 20260505234517 | 11 | 23 | 9.7 | 14.5 | 0.00 | 0.00 | 0.00 | 71 | 1008.7 |
| 20260505233537 | 11 | 16 | 6.4 | 16.1 | 0.00 | 0.00 | 0.00 | 71 | 1008.6 |
| 20260505232517 | 11 | 18 | 6.4 | 11.3 | 0.00 | 0.00 | 0.00 | 71 | 1008.3 |
| 20260505231517 | 11 | 32 | 6.4 | 16.1 | 0.00 | 0.00 | 0.00 | 72 | 1008.2 |
| 20260505230619 | 12 | 46 | 8.0 | 17.7 | 0.00 | 0.00 | 0.00 | 71 | 1008.4 |
| 20260505225518 | 12 | 23 | 8.0 | 16.1 | 0.00 | 0.00 | 0.00 | 71 | 1007.9 |
| 20260505224518 | 12 | 25 | 9.7 | 19.3 | 0.00 | 0.00 | 0.00 | 71 | 1007.8 |
| 20260505223518 | 12 | 16 | 6.4 | 14.5 | 0.00 | 0.00 | 0.00 | 70 | 1007.5 |
| 20260505222518 | 12 | 13 | 6.4 | 14.5 | 0.00 | 0.00 | 0.00 | 70 | 1007.4 |
| 20260505221519 | 12 | 18 | 6.4 | 12.9 | 0.00 | 0.00 | 0.00 | 70 | 1007.1 |
| 20260505220515 | 12 | 32 | 8.0 | 25.7 | 0.00 | 0.00 | 0.00 | 71 | 1006.9 |
| 20260505215516 | 12 | 24 | 8.0 | 17.7 | 0.00 | 0.00 | 0.00 | 71 | 1007.1 |
| 20260505214516 | 12 | 15 | 6.4 | 12.9 | 0.00 | 0.00 | 0.00 | 72 | 1007.3 |
| 20260505213516 | 12 | 16 | 8.0 | 17.7 | 0.00 | 0.00 | 0.00 | 72 | 1007.1 |
| 20260505212516 | 12 | 26 | 6.4 | 17.7 | 0.00 | 0.00 | 0.00 | 73 | 1007.4 |
| 20260505211517 | 12 | 41 | 6.4 | 11.3 | 0.00 | 0.00 | 0.00 | 73 | 1007.2 |
| 20260505210517 | 12 | 8 | 8.0 | 17.7 | 0.00 | 0.00 | 0.00 | 73 | 1006.9 |
| 20260505205517 | 12 | 6 | 6.4 | 11.3 | 0.00 | 0.00 | 0.00 | 74 | 1006.6 |
| 20260505204517 | 12 | 12 | 6.4 | 11.3 | 0.00 | 0.00 | 0.00 | 75 | 1006.7 |
| 20260505203518 | 12 | 15 | 6.4 | 12.9 | 0.00 | 0.00 | 0.00 | 76 | 1007.1 |
| 20260505202517 | 12 | 12 | 6.4 | 14.5 | 0.00 | 0.00 | 0.00 | 76 | 1007.2 |
| 20260505201518 | 12 | 13 | 6.4 | 12.9 | 0.00 | 0.00 | 0.00 | 77 | 1006.8 |
| 20260505200521 | 13 | 3 | 8.0 | 14.5 | 0.00 | 0.00 | 0.00 | 76 | 1006.6 |
| 20260505195520 | 13 | 24 | 6.4 | 12.9 | 0.00 | 0.00 | 0.00 | 76 | 1006.6 |
| 20260505194521 | 13 | 5 | 6.4 | 11.3 | 0.00 | 0.00 | 0.00 | 76 | 1006.5 |
| 20260505193701 | 13 | 7 | 8.0 | 12.9 | 0.00 | 0.00 | 0.00 | 76 | 1006.6 |
| 20260505192541 | 13 | 12 | 4.8 | 11.3 | 0.00 | 0.00 | 0.00 | 78 | 1006.6 |
| 20260505191521 | 13 | 9 | 4.8 | 12.9 | 0.00 | 0.00 | 0.00 | 79 | 1006.3 |
| 20260505190522 | 13 | 21 | 4.8 | 9.7 | 0.00 | 0.00 | 0.00 | 79 | 1006.2 |
| 20260505185536 | 13 | 15 | 4.8 | 11.3 | 0.00 | 0.00 | 0.00 | 80 | 1006.2 |
| 20260505184519 | 13 | 10 | 4.8 | 8.0 | 0.00 | 0.00 | 0.00 | 80 | 1006.0 |
| 20260505183516 | 13 | 15 | 6.4 | 12.9 | 0.00 | 0.00 | 0.00 | 80 | 1006.1 |
| 20260505182516 | 13 | 6 | 4.8 | 9.7 | 0.00 | 0.00 | 0.00 | 81 | 1006.0 |
| 20260505181517 | 13 | 16 | 4.8 | 11.3 | 0.00 | 0.00 | 0.00 | 82 | 1006.1 |
| 20260505180516 | 13 | 10 | 4.8 | 11.3 | 0.00 | 0.00 | 0.00 | 83 | 1006.1 |
| 20260505175517 | 13 | 9 | 6.4 | 12.9 | 0.00 | 0.00 | 0.00 | 83 | 1005.9 |
| 20260505174517 | 13 | 4 | 6.4 | 16.1 | 0.00 | 0.00 | 0.00 | 83 | 1005.2 |
| 20260505173537 | 13 | 9 | 8.0 | 14.5 | 0.00 | 0.00 | 0.00 | 83 | 1005.2 |
| 20260505172517 | 13 | 12 | 6.4 | 12.9 | 0.00 | 0.00 | 0.00 | 83 | 1005.1 |
| 20260505171518 | 13 | 21 | 6.4 | 11.3 | 0.00 | 0.00 | 0.00 | 84 | 1005.1 |
| 20260505170518 | 13 | 13 | 8.0 | 14.5 | 0.00 | 0.00 | 0.00 | 84 | 1005.2 |
| 20260505165517 | 14 | 13 | 8.0 | 20.9 | 0.00 | 0.00 | 0.00 | 84 | 1004.6 |
| 20260505164538 | 14 | 13 | 8.0 | 14.5 | 0.00 | 0.00 | 0.00 | 84 | 1004.7 |
| 20260505163518 | 14 | 18 | 8.0 | 14.5 | 0.00 | 0.00 | 0.00 | 84 | 1004.3 |
| 20260505162518 | 15 | 15 | 6.4 | 12.9 | 0.00 | 0.00 | 0.00 | 84 | 1004.4 |
| 20260505161515 | 15 | 10 | 6.4 | 19.3 | 0.00 | 0.00 | 0.00 | 83 | 1004.3 |
| 20260505160516 | 15 | 14 | 8.0 | 14.5 | 0.00 | 0.00 | 0.00 | 83 | 1004.1 |
| 20260505152516 | 20 | 11 | 6.4 | 14.5 | 0.00 | 0.00 | 0.00 | 81 | 1003.0 |
| 20260505151517 | 21 | 18 | 6.4 | 11.3 | 0.00 | 0.00 | 0.00 | 79 | 1002.7 |
| 20260505150517 | 21 | 34 | 3.2 | 8.0 | 0.00 | 0.00 | 0.00 | 78 | 1002.4 |
| 20260505140518 | 20 | 164 | 4.8 | 9.7 | 0.00 | 0.00 | 0.00 | 79 | 1001.7 |
| 20260505124516 | 20 | 101 | 8.0 | 16.1 | 0.00 | 0.00 | 0.00 | 80 | 1002.2 |
| 20260505123516 | 19 | 100 | 6.4 | 14.5 | 0.00 | 0.00 | 0.00 | 80 | 1002.2 |
| 20260505122516 | 19 | 106 | 6.4 | 12.9 | 0.00 | 0.00 | 0.00 | 80 | 1001.9 |
| 20260505121517 | 19 | 85 | 6.4 | 11.3 | 0.00 | 0.00 | 0.00 | 80 | 1001.8 |
| 20260505120517 | 19 | 84 | 8.0 | 14.5 | 0.00 | 0.00 | 0.00 | 80 | 1001.8 |
| 20260505115517 | 19 | 91 | 8.0 | 16.1 | 0.00 | 0.00 | 0.00 | 81 | 1001.8 |
| 20260505114517 | 19 | 77 | 11.3 | 22.5 | 0.00 | 0.00 | 0.00 | 80 | 1001.7 |
| 20260505113517 | 19 | 76 | 11.3 | 17.7 | 0.00 | 0.00 | 0.00 | 81 | 1001.6 |
| 20260505112517 | 19 | 61 | 3.2 | 6.4 | 0.00 | 0.00 | 0.00 | 81 | 1001.6 |
| 20260505111517 | 19 | 34 | 3.2 | 8.0 | 0.00 | 0.00 | 0.00 | 80 | 1001.5 |
| 20260505110558 | 19 | 65 | 1.6 | 9.7 | 0.00 | 0.00 | 0.00 | 80 | 1001.2 |
| 20260505101536 | 20 | 93 | 6.4 | 12.9 | 0.00 | 0.00 | 0.00 | 79 | 1000.6 |
| 20260505100516 | 20 | 86 | 6.4 | 12.9 | 0.00 | 0.00 | 0.00 | 79 | 1000.5 |
| 20260505095516 | 20 | 109 | 6.4 | 12.9 | 0.00 | 0.00 | 0.00 | 79 | 1000.3 |
| 20260505094556 | 20 | 94 | 6.4 | 16.1 | 0.00 | 0.00 | 0.00 | 78 | 1000.4 |
| 20260505093516 | 20 | 97 | 6.4 | 11.3 | 0.00 | 0.00 | 0.00 | 77 | 1000.3 |
| 20260505092518 | 20 | 100 | 6.4 | 11.3 | 0.00 | 0.00 | 0.00 | 77 | 1000.4 |
| 20260505091616 | 20 | 104 | 4.8 | 12.9 | 0.00 | 0.00 | 0.00 | 77 | 1000.4 |
| 20260505090517 | 20 | 93 | 3.2 | 11.3 | 0.00 | 0.00 | 0.00 | 77 | 1000.5 |
| 20260505085517 | 20 | 108 | 6.4 | 12.9 | 0.00 | 0.00 | 0.00 | 77 | 1000.5 |
| 20260505084517 | 20 | 99 | 4.8 | 11.3 | 0.00 | 0.00 | 0.00 | 76 | 1000.6 |
| 20260505083517 | 20 | 95 | 4.8 | 11.3 | 0.00 | 0.00 | 0.00 | 76 | 1000.7 |
| 20260505082517 | 20 | 96 | 6.4 | 14.5 | 0.00 | 0.00 | 0.00 | 75 | 1000.7 |
| 20260505081617 | 20 | 88 | 4.8 | 11.3 | 0.00 | 0.00 | 0.00 | 75 | 1000.8 |
| 20260505080518 | 20 | 79 | 6.4 | 12.9 | 0.00 | 0.00 | 0.00 | 75 | 1000.7 |
| 20260505075518 | 20 | 93 | 4.8 | 11.3 | 0.00 | 0.00 | 0.00 | 75 | 1000.9 |
| 20260505074518 | 21 | 75 | 6.4 | 12.9 | 0.00 | 0.00 | 0.00 | 74 | 1001.1 |
| 20260505073518 | 21 | 74 | 8.0 | 12.9 | 0.00 | 0.00 | 0.00 | 74 | 1001.2 |
| 20260505072518 | 21 | 81 | 4.8 | 9.7 | 0.00 | 0.00 | 0.00 | 74 | 1001.3 |
| 20260505071518 | 21 | 64 | 3.2 | 6.4 | 0.00 | 0.00 | 0.00 | 75 | 1001.5 |
| 20260505070518 | 21 | 76 | 3.2 | 6.4 | 0.00 | 0.00 | 0.00 | 75 | 1001.5 |
| 20260505065517 | 20 | 73 | 3.2 | 8.0 | 0.00 | 0.00 | 0.00 | 75 | 1001.5 |
| 20260505064517 | 20 | 68 | 1.6 | 9.7 | 0.00 | 0.00 | 0.00 | 75 | 1001.8 |
| 20260505063517 | 21 | 21 | 1.6 | 4.8 | 0.00 | 0.00 | 0.00 | 75 | 1002.0 |
| 20260505062519 | 21 | 14 | 3.2 | 4.8 | 0.00 | 0.00 | 0.00 | 74 | 1001.8 |
| 20260505061518 | 21 | 58 | 1.6 | 4.8 | 0.00 | 0.00 | 0.00 | 72 | 1001.3 |
| 20260505060518 | 21 | 162 | 3.2 | 8.0 | 0.00 | 0.00 | 0.00 | 72 | 1001.0 |
| 20260505055518 | 21 | 164 | 3.2 | 9.7 | 0.00 | 0.00 | 0.00 | 72 | 1000.9 |
| 20260505054518 | 21 | 167 | 3.2 | 9.7 | 0.00 | 0.00 | 0.00 | 72 | 1001.1 |
| 20260505053538 | 21 | 162 | 3.2 | 8.0 | 0.00 | 0.00 | 0.00 | 71 | 1001.1 |
| 20260505052536 | 21 | 160 | 4.8 | 11.3 | 0.00 | 0.00 | 0.00 | 70 | 1001.3 |
| 20260505051516 | 21 | 176 | 6.4 | 14.5 | 0.00 | 0.00 | 0.00 | 70 | 1001.4 |
| 20260505050516 | 21 | 172 | 4.8 | 14.5 | 0.00 | 0.00 | 0.00 | 70 | 1001.2 |
| 20260505041517 | 21 | 182 | 8.0 | 14.5 | 0.00 | 0.00 | 0.00 | 67 | 1001.1 |
| 20260505040517 | 21 | 174 | 11.3 | 19.3 | 0.00 | 0.00 | 0.00 | 66 | 1001.4 |
| 20260505035517 | 21 | 167 | 6.4 | 14.5 | 0.00 | 0.00 | 0.00 | 67 | 1001.7 |
| 20260505034557 | 21 | 169 | 8.0 | 14.5 | 0.00 | 0.00 | 0.00 | 67 | 1001.5 |
| 20260505033517 | 21 | 173 | 6.4 | 16.1 | 0.00 | 0.00 | 0.00 | 69 | 1002.0 |
| 20260505032517 | 21 | 167 | 6.4 | 14.5 | 0.00 | 0.00 | 0.00 | 67 | 1002.2 |
| 20260505031518 | 21 | 174 | 8.0 | 16.1 | 0.00 | 0.00 | 0.00 | 64 | 1002.3 |
| 20260505030518 | 21 | 174 | 6.4 | 12.9 | 0.00 | 0.00 | 0.00 | 64 | 1002.2 |
| 20260505025520 | 22 | 175 | 4.8 | 11.3 | 0.00 | 0.00 | 0.00 | 64 | 1002.3 |
| 20260505024518 | 22 | 165 | 4.8 | 11.3 | 0.00 | 0.00 | 0.00 | 64 | 1002.4 |
| 20260505023519 | 22 | 174 | 6.4 | 9.7 | 0.00 | 0.00 | 0.00 | 63 | 1002.5 |
| 20260505022518 | 22 | 168 | 4.8 | 9.7 | 0.00 | 0.00 | 0.00 | 63 | 1002.5 |
| 20260505021518 | 22 | 164 | 4.8 | 11.3 | 0.00 | 0.00 | 0.00 | 63 | 1002.5 |
| 20260505020516 | 22 | 152 | 4.8 | 14.5 | 0.00 | 0.00 | 0.00 | 62 | 1002.5 |
| 20260505015516 | 22 | 163 | 6.4 | 12.9 | 0.00 | 0.00 | 0.00 | 62 | 1002.4 |